Find Starlink 34774

NORAD ID: 66485 Int'l Des: 2025-263 Owner: SPXS Country: US Constellation: starlink operational
LEOCIRCULAR

Current View

Loading 3D Globe...

About Starlink 34774

Description loading...

Upcoming Passes

Passes for default location (London). Set your location on the main map for personalized predictions.

Altitude History

Loading altitude history...

Two-Line Element Set

1 66485U 25263A 26145.39745970 .00021305 00000-0 78110-3 0 9990
2 66485 42.9967 277.2137 0000680 291.9391 68.1388 15.27597226 30637
Epoch: May 25, 2026 • Age: 23 hours

Current Status

Altitude 495.8 km
Velocity 7.62 km/s
Sub-Earth Point -43.09°S, 163.77°E
Launch Date Nov 15, 2025
Age 0.5 years
Type internet

Technical Details

Classification Payload
Mass 575.00 kg
Dry Mass 530.00 kg
Total Mass 575.00 kg
Length 0.30 m
Diameter 4.10 m
Span 29.00 m
Shape Box + pan
Manufacturer SPXS
Bus Type Starlink V2MO
Phase Status In Orbit
Owner/State SPXS/US

Most Searched